Погода в Первомайском

Россия / Ульяновская область     54°01′07″N   45°54′46″E
темп.,
°C
ветер,
м/с
пор.,
м/с
влажн.,
%
обл.,
%
осадки,
мм/ч
давл.,
гПа
погр.,
м
13 апреля, вт
вт1301:00+5в229889 0.0 103419
04:00+5вюв1195100 0.0 103410
07:00+6вюв129780 0.0 103450
10:00+13юв37655 0.0 1033353
13:00+17ююв464428 0.0 1032910
16:00+18юв464058 0.0 10311159
19:00+13юв38575 0.0 1030128
22:00+9юв226550 0.0 103112
14 апреля, ср
ср1401:00+7юв226813 0.0 103013
04:00+5юв22735 0.0 103012
07:00+5вюв22765 0.0 102918
10:00+13юв47541 0.0 1027398
13:00+17юв57460 0.0 1026946
16:00+18юв57490 0.0 10241289
19:00+15юв37665 0.0 1023204
22:00+10юв22850 0.0 102322
15 апреля, чт
чт1501:00+9юв21904 0.0 102212
04:00+7юв11900 0.0 102211
07:00+7юв11880 0.0 102116
10:00+14юв23615 0.0 1020414
13:00+18ююв234382 0.0 10191243
16:00+19юв233962 0.0 10181608
19:00+16в225729 0.0 101729
22:00
16 апреля, пт
пт1601:00+10в117720 0.0 101710
04:00+9всв118135 0.0 101710
07:00+9всв218222 0.0 101714
10:00+15всв236064 0.0 1017442
13:00+18всв234845 0.3 10161512
16:00+16св465788 1.3 1016659
19:00+14св5107174 2.6 1017525
22:00+10св410839 0.2 1020480
17 апреля, сб
сб1701:00+7св4109091 0.0 1021515
04:00+6св4108957 0.0 1021462
07:00+5св410875 0.0 1022430
10:00+8всв58659 0.0 1022719
13:00+11св674580 0.0 10231205
16:00+11св67365 0.0 10231479
19:00+9св49470 0.0 1023499
22:00+5св24685 0.0 102568